Hourly Data Report for February 07, 2004

TORONTO CITY
ONTARIO

43°40'00.000" N
79°24'00.000" W
112.50 m
6158355
71508
XTO

Download Data

Hourly Data (February 2004)
Hourly Data Report for February 7, 2004
TIME
LST
Temp Definition
°C
Dew Point Definition
°C
Rel Hum Definition
%
Precip. Amount Definition
mm

Wind Dir Definition
10's deg

Wind Spd Definition
km/h
Visibility Definition
km
Stn Press Definition
kPa
Hmdx Definition


Wind Chill Definition


Weather Definition


00:00 0.7 -1.4 86   LegendMM LegendMM LegendMM 99.12     LegendNANA
01:00 0.5 -1.4 87   LegendMM LegendMM LegendMM 99.08     LegendNANA
02:00 0.1 -2.6 82   LegendMM LegendMM LegendMM 99.05     LegendNANA
03:00 -0.3 -3.1 81   LegendMM LegendMM LegendMM 99.10     LegendNANA
04:00 -1.0 -4.0 80   LegendMM LegendMM LegendMM 99.09     LegendNANA
05:00 -2.3 -5.2 80   LegendMM LegendMM LegendMM 99.12     LegendNANA
06:00 -3.6 -7.8 73   LegendMM LegendMM LegendMM 99.14     LegendNANA
07:00 -4.2 -8.2 74   LegendMM LegendMM LegendMM 99.21     LegendNANA
08:00 -5.1 -8.3 78   LegendMM LegendMM LegendMM 99.30     LegendNANA
09:00 -5.4 -9.7 72   LegendMM LegendMM LegendMM 99.42     LegendNANA
10:00 -5.6 -10.3 69   LegendMM LegendMM LegendMM 99.49     LegendNANA
11:00 -5.2 -11.0 64   LegendMM LegendMM LegendMM 99.59     LegendNANA
12:00 -4.8 -10.8 63   LegendMM LegendMM LegendMM 99.66     LegendNANA
13:00 -4.9 -11.0 62   LegendMM LegendMM LegendMM 99.71     LegendNANA
14:00 -4.8 -11.1 61   LegendMM LegendMM LegendMM 99.75     LegendNANA
15:00 -5.3 -10.9 65   LegendMM LegendMM LegendMM 99.82     LegendNANA
16:00 -5.8 -11.1 66   LegendMM LegendMM LegendMM 99.94     LegendNANA
17:00 -6.4 -11.6 67   LegendMM LegendMM LegendMM 100.06     LegendNANA
18:00 -7.6 -12.0 71   LegendMM LegendMM LegendMM 100.22     LegendNANA
19:00 -8.2 -12.5 71   LegendMM LegendMM LegendMM 100.37     LegendNANA
20:00 -8.6 -13.2 69   LegendMM LegendMM LegendMM 100.51     LegendNANA
21:00 -9.0 -15.4 60   LegendMM LegendMM LegendMM 100.60     LegendNANA
22:00 -9.4 -16.9 54   LegendMM LegendMM LegendMM 100.72     LegendNANA
23:00 -9.9 -16.8 57   LegendMM LegendMM LegendMM 100.80     LegendNANA

Notes on Data Quality.

Legend

  • E = Estimated
  • M = Missing
  • NA = Not Available*
  • [empty] = Indicates an unobserved value
Date modified: